{"data":{"norad_id":63920,"epoch":"2026-05-25T04:28:17.907168Z","epoch_age_seconds":49180,"freshness":"FRESH","line1":"1 63920U 25096C   26145.18631837  .00000126  00000+0  58057-4 0  9994","line2":"2 63920  85.9971 197.5177 0002465 101.0886 259.0575 14.12443318 72169","mean_motion":14.12443318,"eccentricity":0.0002465,"inclination_deg":85.9971,"raan_deg":197.5177,"arg_perigee_deg":101.0886,"mean_anomaly_deg":259.0575,"bstar":5.8057e-5,"rev_number":7216,"period_min":101.95099383096,"perigee_km":849.24077032393,"apogee_km":852.80474608472,"semimajor_km":7229.1597582043,"source":"CELESTRAK","updated_at":"2026-05-25T13:38:04.085008Z"}}